Terminal Aerodrome Forecast
Issued by NWS Boise, ID

Home | Current Version | Previous Version | Text Only | Print | Product List | Glossary On
Versions: 1 2 3 4 5 6 7 8 9 10 11 12 13 14 15 16 17 18 19 20 21 22
000
FTUS45 KBOI 061120
TAFBNO
TAF
KBNO 061120Z 0612/0712 27009KT P6SM SCT100
     FM061800 28015G25KT P6SM SCT090 BKN200
     FM070200 31012KT P6SM VCSH SCT050 BKN090=

USA.gov is the U.S. government's official web portal to all federal, state and local government web resources and services.